Time,TemperatureF,DewpointF,PressureIn,WindDirection,WindDirectionDegrees,WindSpeedMPH,WindSpeedGustMPH,Humidity,HourlyPrecipIn,Conditions,Clouds,dailyrainin,SoftwareType,DateUTC
2013-04-22 00:00:00,51.4,47.7,30.06,North,0,2.0,5.0,87,0.00,CLR,SCT,0.00,WeatherDisplay:10.37,2013-04-21 22:00:00,
2013-04-22 00:10:00,51.4,47.7,30.07,North,0,3.0,3.0,87,0.00,CLR,SCT,0.00,WeatherDisplay:10.37,2013-04-21 22:10:00,
2013-04-22 00:20:00,51.4,47.7,30.07,North,0,0.0,3.0,87,0.00,CLR,SCT,0.00,WeatherDisplay:10.37,2013-04-21 22:20:00,
2013-04-22 00:29:00,51.4,47.7,30.07,North,0,0.0,2.0,87,0.00,CLR,SCT,0.00,WeatherDisplay:10.37,2013-04-21 22:29:00,
2013-04-22 00:39:00,51.4,47.7,30.07,North,0,0.0,7.0,87,0.00,CLR,SCT,0.00,WeatherDisplay:10.37,2013-04-21 22:39:00,
2013-04-22 00:49:00,51.4,47.7,30.07,North,0,2.0,4.0,87,0.00,CLR,SCT,0.00,WeatherDisplay:10.37,2013-04-21 22:49:00,
2013-04-22 00:59:00,51.4,47.7,30.07,North,0,1.0,5.0,87,0.00,CLR,SCT,0.00,WeatherDisplay:10.37,2013-04-21 22:59:00,
2013-04-22 01:09:00,51.4,47.7,30.07,North,0,0.0,1.0,87,0.00,CLR,SCT,0.00,WeatherDisplay:10.37,2013-04-21 23:09:00,
2013-04-22 01:19:00,51.4,47.7,30.07,North,0,0.0,0.0,87,0.00,CLR,SCT,0.00,WeatherDisplay:10.37,2013-04-21 23:19:00,
2013-04-22 01:29:00,51.4,47.7,30.06,North,0,0.0,0.0,87,0.00,CLR,SCT,0.00,WeatherDisplay:10.37,2013-04-21 23:29:00,
2013-04-22 01:39:00,51.4,47.7,30.06,North,0,0.0,0.0,87,0.00,CLR,SCT,0.00,WeatherDisplay:10.37,2013-04-21 23:39:00,
2013-04-22 01:49:00,51.4,47.7,30.06,North,0,0.0,0.0,87,0.00,CLR,SCT,0.00,WeatherDisplay:10.37,2013-04-21 23:49:00,
2013-04-22 01:59:00,51.4,47.7,30.06,North,0,0.0,0.0,87,0.00,CLR,SCT,0.00,WeatherDisplay:10.37,2013-04-21 23:59:00,
2013-04-22 02:09:00,51.4,47.7,30.06,North,0,0.0,0.0,87,0.00,CLR,SCT,0.00,WeatherDisplay:10.37,2013-04-22 00:09:00,
2013-04-22 02:19:00,51.4,47.7,30.06,North,0,0.0,0.0,87,0.00,CLR,SCT,0.00,WeatherDisplay:10.37,2013-04-22 00:19:00,
2013-04-22 02:29:00,51.4,47.7,30.06,North,0,0.0,0.0,87,0.00,CLR,SCT,0.00,WeatherDisplay:10.37,2013-04-22 00:29:00,
2013-04-22 02:39:00,51.4,47.7,30.06,North,0,0.0,0.0,87,0.00,CLR,SCT,0.00,WeatherDisplay:10.37,2013-04-22 00:39:00,
2013-04-22 02:49:00,51.4,47.7,30.06,North,0,0.0,0.0,87,0.00,CLR,SCT,0.00,WeatherDisplay:10.37,2013-04-22 00:49:00,
2013-04-22 02:59:00,51.4,47.7,30.06,North,0,0.0,0.0,87,0.00,CLR,SCT,0.00,WeatherDisplay:10.37,2013-04-22 00:59:00,
2013-04-22 03:09:00,51.4,47.7,30.06,North,0,0.0,0.0,87,0.00,CLR,SCT,0.00,WeatherDisplay:10.37,2013-04-22 01:09:00,
2013-04-22 03:20:00,51.4,47.7,30.06,North,0,0.0,0.0,87,0.00,CLR,SCT,0.00,WeatherDisplay:10.37,2013-04-22 01:20:00,
2013-04-22 03:30:00,51.4,47.7,30.06,North,0,0.0,0.0,87,0.00,CLR,SCT,0.00,WeatherDisplay:10.37,2013-04-22 01:30:00,
2013-04-22 03:40:00,51.4,47.7,30.06,North,0,0.0,0.0,87,0.00,CLR,SCT,0.00,WeatherDisplay:10.37,2013-04-22 01:40:00,
2013-04-22 03:50:00,51.4,47.7,30.05,North,0,0.0,0.0,87,0.00,CLR,SCT,0.00,WeatherDisplay:10.37,2013-04-22 01:50:00,
2013-04-22 04:00:00,51.4,47.7,30.05,North,0,0.0,0.0,87,0.00,CLR,SCT,0.00,WeatherDisplay:10.37,2013-04-22 02:00:00,
2013-04-22 04:10:00,51.4,47.7,30.05,North,0,0.0,0.0,87,0.00,CLR,SCT,0.00,WeatherDisplay:10.37,2013-04-22 02:10:00,
2013-04-22 04:20:00,51.4,47.7,30.05,North,0,0.0,0.0,87,0.00,CLR,SCT,0.00,WeatherDisplay:10.37,2013-04-22 02:20:00,
2013-04-22 04:30:00,51.4,47.7,30.05,North,0,0.0,0.0,87,0.00,CLR,SCT,0.00,WeatherDisplay:10.37,2013-04-22 02:30:00,
2013-04-22 04:40:00,51.4,47.7,30.05,North,0,0.0,0.0,87,0.00,CLR,SCT,0.00,WeatherDisplay:10.37,2013-04-22 02:40:00,
2013-04-22 04:50:00,51.4,47.7,30.05,North,0,0.0,0.0,87,0.00,CLR,SCT,0.00,WeatherDisplay:10.37,2013-04-22 02:50:00,
2013-04-22 05:00:00,51.4,47.7,30.04,North,0,0.0,0.0,87,0.00,CLR,SCT,0.00,WeatherDisplay:10.37,2013-04-22 03:00:00,
2013-04-22 05:10:00,51.4,47.7,30.05,North,0,0.0,0.0,87,0.00,CLR,SCT,0.00,WeatherDisplay:10.37,2013-04-22 03:10:00,
2013-04-22 05:20:00,51.4,47.7,30.05,North,0,0.0,0.0,87,0.00,CLR,SCT,0.00,WeatherDisplay:10.37,2013-04-22 03:20:00,
2013-04-22 05:30:00,51.4,47.7,30.05,North,0,0.0,0.0,87,0.00,CLR,SCT,0.00,WeatherDisplay:10.37,2013-04-22 03:30:00,
2013-04-22 05:40:00,51.4,47.7,30.05,North,0,0.0,0.0,87,0.00,CLR,SCT,0.00,WeatherDisplay:10.37,2013-04-22 03:40:00,
2013-04-22 05:50:00,51.4,47.7,30.05,North,0,0.0,0.0,87,0.00,CLR,SCT,0.00,WeatherDisplay:10.37,2013-04-22 03:50:00,
2013-04-22 06:00:00,51.4,47.7,30.05,North,0,0.0,0.0,87,0.00,CLR,SCT,0.00,WeatherDisplay:10.37,2013-04-22 04:00:00,
2013-04-22 06:10:00,51.4,47.7,30.05,North,0,0.0,0.0,87,0.00,CLR,SCT,0.00,WeatherDisplay:10.37,2013-04-22 04:10:00,
2013-04-22 06:20:00,51.4,47.7,30.05,North,0,0.0,0.0,87,0.00,CLR,SCT,0.00,WeatherDisplay:10.37,2013-04-22 04:20:00,
2013-04-22 06:30:00,51.4,47.7,30.06,North,0,0.0,0.0,87,0.00,CLR,SCT,0.00,WeatherDisplay:10.37,2013-04-22 04:30:00,
2013-04-22 06:39:00,51.4,47.7,30.06,North,0,0.0,0.0,87,0.00,CLR,SCT,0.00,WeatherDisplay:10.37,2013-04-22 04:39:00,
2013-04-22 06:59:00,51.4,47.7,30.06,North,0,0.0,0.0,87,0.00,CLR,SCT,0.00,WeatherDisplay:10.37,2013-04-22 04:59:00,
2013-04-22 07:09:00,51.4,47.7,30.06,North,0,0.0,0.0,87,0.00,CLR,SCT,0.00,WeatherDisplay:10.37,2013-04-22 05:09:00,
2013-04-22 07:19:00,51.4,47.7,30.06,SSW,211,2.0,3.0,87,0.00,CLR,SCT,0.00,WeatherDisplay:10.37,2013-04-22 05:19:00,
2013-04-22 07:29:00,51.4,47.7,30.07,SSW,202,0.0,2.0,87,0.00,CLR,SCT,0.00,WeatherDisplay:10.37,2013-04-22 05:29:00,
2013-04-22 07:39:00,51.4,47.7,30.07,SSW,198,3.0,3.0,87,0.00,CLR,SCT,0.00,WeatherDisplay:10.37,2013-04-22 05:39:00,
2013-04-22 07:49:00,51.4,47.7,30.07,South,180,0.0,3.0,87,0.00,CLR,SCT,0.00,WeatherDisplay:10.37,2013-04-22 05:49:00,
2013-04-22 07:59:00,51.4,47.7,30.07,South,180,0.0,3.0,87,0.00,CLR,SCT,0.00,WeatherDisplay:10.37,2013-04-22 05:59:00,
2013-04-22 08:09:00,51.4,47.7,30.07,South,180,0.0,0.0,87,0.00,CLR,SCT,0.00,WeatherDisplay:10.37,2013-04-22 06:09:00,
2013-04-22 08:19:00,51.4,47.7,30.08,South,180,0.0,3.0,87,0.00,CLR,SCT,0.00,WeatherDisplay:10.37,2013-04-22 06:19:00,
2013-04-22 08:29:00,51.4,47.7,30.08,South,180,0.0,2.0,87,0.00,CLR,SCT,0.00,WeatherDisplay:10.37,2013-04-22 06:29:00,
2013-04-22 08:39:00,51.4,47.7,30.08,South,180,3.0,3.0,87,0.00,CLR,SCT,0.00,WeatherDisplay:10.37,2013-04-22 06:39:00,
2013-04-22 08:49:00,51.4,47.7,30.08,South,180,0.0,4.0,87,0.00,CLR,SCT,0.00,WeatherDisplay:10.37,2013-04-22 06:49:00,
2013-04-22 08:59:00,51.4,47.7,30.08,South,180,0.0,0.0,87,0.00,CLR,SCT,0.00,WeatherDisplay:10.37,2013-04-22 06:59:00,
2013-04-22 09:09:00,51.4,47.7,30.08,South,180,0.0,3.0,87,0.00,CLR,SCT,0.00,WeatherDisplay:10.37,2013-04-22 07:09:00,
2013-04-22 09:20:00,51.4,47.7,30.08,SSW,202,0.0,2.0,87,0.00,CLR,SCT,0.00,WeatherDisplay:10.37,2013-04-22 07:20:00,
2013-04-22 09:30:00,51.4,47.7,30.09,SSW,195,0.0,0.0,87,0.00,CLR,SCT,0.00,WeatherDisplay:10.37,2013-04-22 07:30:00,
2013-04-22 09:40:00,51.4,47.7,30.08,SSW,202,0.0,0.0,87,0.00,CLR,SCT,0.00,WeatherDisplay:10.37,2013-04-22 07:40:00,
2013-04-22 09:50:00,51.4,47.7,30.09,SSW,202,0.0,0.0,87,0.00,CLR,SCT,0.00,WeatherDisplay:10.37,2013-04-22 07:50:00,
2013-04-22 10:00:00,51.4,47.7,30.09,SSW,202,0.0,2.0,87,0.00,CLR,SCT,0.00,WeatherDisplay:10.37,2013-04-22 08:00:00,
2013-04-22 10:10:00,51.4,47.7,30.09,SSW,202,0.0,0.0,87,0.00,CLR,SCT,0.00,WeatherDisplay:10.37,2013-04-22 08:10:00,
2013-04-22 10:20:00,51.4,47.7,30.09,SSW,202,0.0,0.0,87,0.00,CLR,SCT,0.00,WeatherDisplay:10.37,2013-04-22 08:20:00,
2013-04-22 10:30:00,51.4,47.7,30.09,South,185,0.0,5.0,87,0.00,CLR,SCT,0.00,WeatherDisplay:10.37,2013-04-22 08:30:00,
2013-04-22 10:40:00,51.4,47.7,30.09,SSW,200,0.0,0.0,87,0.00,CLR,SCT,0.00,WeatherDisplay:10.37,2013-04-22 08:40:00,
2013-04-22 10:50:00,51.4,47.7,30.08,South,191,0.0,5.0,87,0.00,CLR,SCT,0.00,WeatherDisplay:10.37,2013-04-22 08:50:00,
2013-04-22 11:00:00,51.4,47.7,30.08,SSW,201,0.0,4.0,87,0.00,CLR,SCT,0.00,WeatherDisplay:10.37,2013-04-22 09:00:00,
2013-04-22 11:10:00,51.4,47.7,30.08,South,190,0.0,5.0,87,0.00,CLR,SCT,0.00,WeatherDisplay:10.37,2013-04-22 09:10:00,
2013-04-22 11:20:00,51.4,47.7,30.08,SSW,202,0.0,0.0,87,0.00,CLR,SCT,0.00,WeatherDisplay:10.37,2013-04-22 09:20:00,
2013-04-22 11:30:00,51.4,47.7,30.08,SSW,200,2.0,4.0,87,0.00,CLR,SCT,0.00,WeatherDisplay:10.37,2013-04-22 09:30:00,
2013-04-22 11:40:00,51.4,47.7,30.08,SSW,195,5.0,5.0,87,0.00,CLR,SCT,0.00,WeatherDisplay:10.37,2013-04-22 09:40:00,
2013-04-22 11:51:00,51.4,47.7,30.07,SSW,200,3.0,6.0,87,0.00,CLR,SCT,0.00,WeatherDisplay:10.37,2013-04-22 09:51:00,
2013-04-22 11:59:00,51.4,47.7,30.07,SSW,192,2.0,6.0,87,0.00,CLR,SCT,0.00,WeatherDisplay:10.37,2013-04-22 09:59:00,
2013-04-22 12:09:00,51.4,47.7,30.07,South,180,3.0,4.0,87,0.00,CLR,SCT,0.00,WeatherDisplay:10.37,2013-04-22 10:09:00,
2013-04-22 12:19:00,51.4,47.7,30.07,South,185,3.0,5.0,87,0.00,CLR,SCT,0.00,WeatherDisplay:10.37,2013-04-22 10:19:00,
2013-04-22 12:30:00,51.4,47.7,30.07,SSW,195,7.0,7.0,87,0.00,CLR,SCT,0.00,WeatherDisplay:10.37,2013-04-22 10:30:00,
2013-04-22 12:39:00,51.4,47.7,30.07,South,180,5.0,6.0,87,0.00,CLR,SCT,0.00,WeatherDisplay:10.37,2013-04-22 10:39:00,
2013-04-22 12:49:00,51.4,47.7,30.07,SW,217,7.0,7.0,87,0.00,CLR,SCT,0.00,WeatherDisplay:10.37,2013-04-22 10:49:00,
2013-04-22 12:59:00,51.4,47.7,30.07,SSW,202,0.0,6.0,87,0.00,CLR,SCT,0.00,WeatherDisplay:10.37,2013-04-22 10:59:00,
2013-04-22 13:09:00,51.4,47.7,30.07,SSW,202,0.0,5.0,87,0.00,CLR,SCT,0.00,WeatherDisplay:10.37,2013-04-22 11:09:00,
2013-04-22 13:19:00,51.4,47.7,30.07,SSW,202,2.0,4.0,87,0.00,CLR,SCT,0.00,WeatherDisplay:10.37,2013-04-22 11:19:00,
2013-04-22 13:29:00,51.4,47.7,30.07,SSW,200,2.0,7.0,87,0.00,CLR,SCT,0.00,WeatherDisplay:10.37,2013-04-22 11:29:00,
2013-04-22 13:39:00,51.4,47.7,30.06,South,189,5.0,5.0,87,0.00,CLR,SCT,0.00,WeatherDisplay:10.37,2013-04-22 11:39:00,
2013-04-22 13:49:00,51.4,47.7,30.06,South,184,9.0,10.0,87,0.00,CLR,SCT,0.00,WeatherDisplay:10.37,2013-04-22 11:49:00,
2013-04-22 13:59:00,51.4,47.7,30.06,SSW,202,5.0,9.0,87,0.00,CLR,SCT,0.00,WeatherDisplay:10.37,2013-04-22 11:59:00,
2013-04-22 14:09:00,51.4,47.7,30.06,SSW,202,5.0,8.0,87,0.00,CLR,SCT,0.00,WeatherDisplay:10.37,2013-04-22 12:09:00,
2013-04-22 14:19:00,51.4,47.7,30.06,North,352,2.0,7.0,87,0.00,CLR,SCT,0.00,WeatherDisplay:10.37,2013-04-22 12:19:00,
2013-04-22 14:29:00,51.4,47.7,30.05,SW,215,0.0,6.0,87,0.00,CLR,SCT,0.00,WeatherDisplay:10.37,2013-04-22 12:29:00,
2013-04-22 14:39:00,51.4,47.7,30.06,SSW,202,10.0,11.0,87,0.00,CLR,SCT,0.00,WeatherDisplay:10.37,2013-04-22 12:39:00,
2013-04-22 14:49:00,51.4,47.7,30.06,SSW,205,2.0,8.0,87,0.00,CLR,SCT,0.00,WeatherDisplay:10.37,2013-04-22 12:49:00,
2013-04-22 14:59:00,51.4,47.7,30.05,South,191,7.0,12.0,87,0.00,CLR,SCT,0.00,WeatherDisplay:10.37,2013-04-22 12:59:00,
2013-04-22 15:10:00,51.4,47.7,30.05,South,185,9.0,11.0,87,0.00,CLR,SCT,0.00,WeatherDisplay:10.37,2013-04-22 13:10:00,
2013-04-22 15:20:00,51.4,47.7,30.05,SSW,209,3.0,10.0,87,0.00,CLR,SCT,0.00,WeatherDisplay:10.37,2013-04-22 13:20:00,
2013-04-22 15:30:00,51.4,47.7,30.05,South,190,10.0,13.0,87,0.00,CLR,SCT,0.00,WeatherDisplay:10.37,2013-04-22 13:30:00,
2013-04-22 15:40:00,51.4,47.7,30.05,SSW,202,2.0,10.0,87,0.00,CLR,SCT,0.00,WeatherDisplay:10.37,2013-04-22 13:40:00,
2013-04-22 15:50:00,51.4,47.7,30.05,SW,223,10.0,11.0,87,0.00,CLR,SCT,0.00,WeatherDisplay:10.37,2013-04-22 13:50:00,
2013-04-22 16:00:00,51.4,47.7,30.05,SSW,197,12.0,12.0,87,0.00,CLR,SCT,0.00,WeatherDisplay:10.37,2013-04-22 14:00:00,
2013-04-22 16:10:00,51.4,47.7,30.04,SW,236,8.0,15.0,87,0.00,CLR,SCT,0.00,WeatherDisplay:10.37,2013-04-22 14:10:00,
2013-04-22 16:20:00,51.4,47.7,30.05,SSW,213,2.0,10.0,87,0.00,CLR,SCT,0.00,WeatherDisplay:10.37,2013-04-22 14:20:00,
2013-04-22 16:31:00,51.4,47.7,30.04,North,0,3.0,8.0,87,0.00,CLR,SCT,0.00,WeatherDisplay:10.37,2013-04-22 14:31:00,
2013-04-22 16:40:00,51.4,47.7,30.04,NW,304,9.0,12.0,87,0.00,CLR,SCT,0.00,WeatherDisplay:10.37,2013-04-22 14:40:00,
2013-04-22 16:50:00,51.4,47.7,30.04,SSW,204,7.0,9.0,87,0.00,CLR,SCT,0.00,WeatherDisplay:10.37,2013-04-22 14:50:00,
2013-04-22 17:00:00,51.4,47.7,30.04,WNW,293,12.0,12.0,87,0.00,CLR,SCT,0.00,WeatherDisplay:10.37,2013-04-22 15:00:00,
2013-04-22 17:10:00,51.4,47.7,30.04,WSW,244,6.0,10.0,87,0.00,CLR,SCT,0.00,WeatherDisplay:10.37,2013-04-22 15:10:00,
2013-04-22 17:20:00,51.4,47.7,30.04,West,268,8.0,10.0,87,0.00,CLR,SCT,0.00,WeatherDisplay:10.37,2013-04-22 15:20:00,
2013-04-22 17:30:00,51.4,47.7,30.04,SSW,204,8.0,11.0,87,0.00,CLR,SCT,0.00,WeatherDisplay:10.37,2013-04-22 15:30:00,
2013-04-22 17:40:00,51.4,47.7,30.04,SW,219,0.0,10.0,87,0.00,CLR,SCT,0.00,WeatherDisplay:10.37,2013-04-22 15:40:00,
2013-04-22 17:50:00,51.4,47.7,30.03,SSW,211,8.0,8.0,87,0.00,CLR,SCT,0.00,WeatherDisplay:10.37,2013-04-22 15:50:00,
2013-04-22 17:59:00,51.4,47.7,30.04,SSW,204,3.0,8.0,87,0.00,CLR,SCT,0.00,WeatherDisplay:10.37,2013-04-22 15:59:00,
2013-04-22 18:10:00,51.4,47.7,30.04,West,266,7.0,7.0,87,0.00,CLR,SCT,0.00,WeatherDisplay:10.37,2013-04-22 16:10:00,
2013-04-22 18:20:00,51.4,47.7,30.04,SSW,200,8.0,10.0,87,0.00,CLR,SCT,0.00,WeatherDisplay:10.37,2013-04-22 16:20:00,
2013-04-22 18:29:00,51.4,47.7,30.04,SSW,205,2.0,8.0,87,0.00,CLR,SCT,0.00,WeatherDisplay:10.37,2013-04-22 16:29:00,
2013-04-22 18:40:00,51.4,47.7,30.04,SSW,199,5.0,9.0,87,0.00,CLR,SCT,0.00,WeatherDisplay:10.37,2013-04-22 16:40:00,
2013-04-22 18:49:00,51.4,47.7,30.04,SW,217,9.0,11.0,87,0.00,CLR,SCT,0.00,WeatherDisplay:10.37,2013-04-22 16:49:00,
2013-04-22 18:59:00,51.4,47.7,30.05,SSW,209,2.0,9.0,87,0.00,CLR,SCT,0.00,WeatherDisplay:10.37,2013-04-22 16:59:00,
2013-04-22 19:09:00,51.4,47.7,30.05,SSW,201,1.0,9.0,87,0.00,CLR,SCT,0.00,WeatherDisplay:10.37,2013-04-22 17:09:00,
2013-04-22 19:19:00,51.4,47.7,30.05,WSW,254,6.0,10.0,87,0.00,CLR,SCT,0.00,WeatherDisplay:10.37,2013-04-22 17:19:00,
2013-04-22 19:29:00,51.4,47.7,30.05,SW,224,6.0,9.0,87,0.00,CLR,SCT,0.00,WeatherDisplay:10.37,2013-04-22 17:29:00,
2013-04-22 19:39:00,51.4,47.7,30.05,WSW,237,3.0,9.0,87,0.00,CLR,SCT,0.00,WeatherDisplay:10.37,2013-04-22 17:39:00,
2013-04-22 19:49:00,51.4,47.7,30.05,WSW,258,0.0,5.0,87,0.00,CLR,SCT,0.00,WeatherDisplay:10.37,2013-04-22 17:49:00,
2013-04-22 19:59:00,51.4,47.7,30.05,West,265,2.0,5.0,87,0.00,CLR,SCT,0.00,WeatherDisplay:10.37,2013-04-22 17:59:00,
2013-04-22 20:09:00,51.4,47.7,30.05,SSW,208,3.0,8.0,87,0.00,CLR,SCT,0.00,WeatherDisplay:10.37,2013-04-22 18:09:00,
2013-04-22 20:19:00,51.4,47.7,30.05,SSW,206,0.0,6.0,87,0.00,CLR,SCT,0.00,WeatherDisplay:10.37,2013-04-22 18:19:00,
2013-04-22 20:29:00,51.4,47.7,30.05,SSW,203,7.0,7.0,87,0.00,CLR,SCT,0.00,WeatherDisplay:10.37,2013-04-22 18:29:00,
2013-04-22 20:39:00,51.4,47.7,30.06,SSW,195,1.0,7.0,87,0.00,CLR,SCT,0.00,WeatherDisplay:10.37,2013-04-22 18:39:00,
2013-04-22 20:49:00,51.4,47.7,30.06,SSW,212,5.0,9.0,87,0.00,CLR,SCT,0.00,WeatherDisplay:10.37,2013-04-22 18:49:00,
2013-04-22 20:59:00,51.4,47.7,30.06,SSW,203,1.0,14.0,87,0.00,CLR,SCT,0.00,WeatherDisplay:10.37,2013-04-22 18:59:00,
2013-04-22 21:10:00,51.4,47.7,30.06,South,186,0.0,7.0,87,0.00,CLR,SCT,0.00,WeatherDisplay:10.37,2013-04-22 19:10:00,
2013-04-22 21:20:00,51.4,47.7,30.06,SSW,196,0.0,3.0,87,0.00,CLR,SCT,0.00,WeatherDisplay:10.37,2013-04-22 19:20:00,
2013-04-22 21:30:00,51.4,47.7,30.06,South,180,0.0,0.0,87,0.00,CLR,SCT,0.00,WeatherDisplay:10.37,2013-04-22 19:30:00,
2013-04-22 21:40:00,51.4,47.7,30.07,South,180,2.0,2.0,87,0.00,CLR,SCT,0.00,WeatherDisplay:10.37,2013-04-22 19:40:00,
2013-04-22 21:50:00,51.4,47.7,30.07,South,180,1.0,2.0,87,0.00,CLR,SCT,0.00,WeatherDisplay:10.37,2013-04-22 19:50:00,
2013-04-22 22:00:00,51.4,47.7,30.07,South,180,0.0,5.0,87,0.00,CLR,SCT,0.00,WeatherDisplay:10.37,2013-04-22 20:00:00,
2013-04-22 22:10:00,51.4,47.7,30.07,South,180,5.0,5.0,87,0.00,CLR,SCT,0.00,WeatherDisplay:10.37,2013-04-22 20:10:00,
2013-04-22 22:20:00,51.4,47.7,30.07,South,180,0.0,2.0,87,0.00,CLR,SCT,0.00,WeatherDisplay:10.37,2013-04-22 20:20:00,
2013-04-22 22:30:00,51.4,47.7,30.08,South,180,2.0,8.0,87,0.00,CLR,SCT,0.00,WeatherDisplay:10.37,2013-04-22 20:30:00,
2013-04-22 22:40:00,51.4,47.7,30.07,South,180,2.0,9.0,87,0.00,CLR,SCT,0.00,WeatherDisplay:10.37,2013-04-22 20:40:00,
2013-04-22 22:50:00,51.4,47.7,30.08,South,180,1.0,6.0,87,0.00,CLR,SCT,0.00,WeatherDisplay:10.37,2013-04-22 20:50:00,
2013-04-22 23:01:00,51.4,47.7,30.08,South,180,3.0,4.0,87,0.00,CLR,SCT,0.00,WeatherDisplay:10.37,2013-04-22 21:01:00,
2013-04-22 23:10:00,51.4,47.7,30.08,South,180,2.0,3.0,87,0.00,CLR,SCT,0.00,WeatherDisplay:10.37,2013-04-22 21:10:00,
2013-04-22 23:20:00,51.4,47.7,30.08,South,180,0.0,0.0,87,0.00,CLR,SCT,0.00,WeatherDisplay:10.37,2013-04-22 21:20:00,
2013-04-22 23:30:00,51.4,47.7,30.09,South,189,0.0,5.0,87,0.00,CLR,SCT,0.00,WeatherDisplay:10.37,2013-04-22 21:30:00,
2013-04-22 23:40:00,51.4,47.7,30.09,South,188,2.0,6.0,87,0.00,CLR,SCT,0.00,WeatherDisplay:10.37,2013-04-22 21:40:00,
2013-04-22 23:50:00,51.4,47.7,30.09,South,180,0.0,2.0,87,0.00,CLR,SCT,0.00,WeatherDisplay:10.37,2013-04-22 21:50:00,